Regional Weather Roundup
Issued by NWS Wilmington, NC

Home | Current Version | Previous Version | Text Only | Print | Product List | Glossary On
Versions: 1 2 3 4 5 6 7 8 9 10 11 12 13 14 15 16 17 18 19 20 21 22 23 24 25 26 27 28 29 30 31 32 33 34 35 36 37 38 39 40 41 42 43 44
000
ASUS42 KILM 260010
RWRILM
RWRILM
REGIONAL HOURLY WEATHER ROUNDUP
NATIONAL WEATHER SERVICE WILMINGTON NC
700 PM EST THU DEC 25 2014

NOTE: "FAIR" INDICATES FEW OR NO CLOUDS BELOW 12,000 FEET WITH NO
SIGNIFICANT WEATHER AND/OR OBSTRUCTIONS TO VISIBILITY.

...............WFO WILMINGTON COUNTY WARNING AREA...............

......COASTAL NC AND SC COUNTIES......

CITY           SKY/WX    TMP DP  RH WIND       PRES   REMARKS
WILMINGTON     CLEAR     47  44  90 CALM      30.18R
SOUTHPORT      CLEAR     49  47  91 CALM      30.19R
N MYRTLE BEACH CLEAR     46  44  93 CALM      30.18R
MYRTLE BEACH   CLEAR     48  43  81 NW6       30.21R

......INLAND NC AND SC COUNTIES.......

CITY           SKY/WX    TMP DP  RH WIND       PRES   REMARKS
LUMBERTON      CLEAR     47  42  83 CALM      30.20R
ELIZABETHTOWN  CLEAR     47  42  81 CALM      30.19R
WHITEVILLE     CLEAR     48  43  84 CALM      30.19R
FLORENCE       CLEAR     48  42  80 NW3       30.20R
DARLINGTON     CLEAR     46  39  76 NW6       30.22R

....................REST OF NORTH CAROLINA......................

.........EASTERN NC.........

CITY           SKY/WX    TMP DP  RH WIND       PRES   REMARKS
CAPE HATTERAS  CLEAR     42  41  96 CALM      30.17R
JACKSONVILLE   CLEAR     45  39  81 CALM      30.18R
MOREHEAD CITY  CLEAR     46  43  89 CALM      30.17R
KENANSVILLE    CLEAR     45  40  82 CALM      30.19R
NEW BERN       CLEAR     45  39  79 CALM      30.18R
ELIZABETH CITY CLEAR     51  36  56 W5        30.16R

.........CENTRAL NC.........

CITY           SKY/WX    TMP DP  RH WIND       PRES   REMARKS
RALEIGH DURHAM CLEAR     44  32  62 CALM      30.19R
ROCKY MOUNT    CLEAR     43  37  79 CALM      30.18R
ROANOKE RAPIDS NOT AVBL
FAYETTEVILLE   CLEAR     51  36  56 NW7       30.19R
HOFFMAN        CLEAR     43  37  81 VRB1      30.23R

.........WESTERN NC.........

CITY           SKY/WX    TMP DP  RH WIND       PRES   REMARKS
CHARLOTTE      CLEAR     46  31  55 NW5       30.22R
GREENSBORO     CLEAR     41  30  65 W6        30.20R
HICKORY        NOT AVBL
BOONE          NOT AVBL
ASHEVILLE      NOT AVBL

.....................REST OF SOUTH CAROLINA.....................

.........EASTERN SC.........

CITY           SKY/WX    TMP DP  RH WIND       PRES   REMARKS
CHARLESTON     CLEAR     51  41  68 CALM      30.22R
BEAUFORT MCAS  CLEAR     47  42  83 CALM      30.23R
HILTON HEAD    CLEAR     46  45  93 CALM      30.24R

.........CENTRAL SC.........

CITY           SKY/WX    TMP DP  RH WIND       PRES   REMARKS
COLUMBIA       CLEAR     46  39  76 W3        30.22R
ORANGEBURG     CLEAR     50  40  68 CALM      30.22R
SUMTER SHAW    CLEAR     49  40  70 W5        30.21R

.........WESTERN SC.........

CITY           SKY/WX    TMP DP  RH WIND       PRES   REMARKS
GREENVILLE     NOT AVBL
ROCK HILL      CLEAR     40  36  86 CALM      30.21R FOG
ANDERSON       CLEAR     43  36  76 CALM      30.21R
CLEMSON        NOT AVBL
GREENWOOD      CLEAR     42  35  76 W3        30.23R


...................COASTAL AND OFFSHORE REPORTS..................

................LOCAL PIERS AND NC RESERVE................


STATION/POSITION TIME  SKY/WX   TEMP    WIND        PRES    VSBY
                                AIR SEA DIR/SP/G
                 (UTC)          (F)     (DEG/KT/KT) (MB)    (MI)
JOHNY MRCER PIER 0000            56 56  290/  4/  4 1021.0R
NC RESRV MASNBRO 2300            53        CALM     1021.0R
OCEAN CREST PIER 0000            54 54  220/  6/  7 1020.9R
SPRINGMAID  PIER 0000            54 53  280/  3/  3 1022.1R


................COASTAL AND OFFSHORE BUOYS................


STATION/POSITION TIME  SKY/WX   TEMP    WIND        PRES    VSBY
                                AIR SEA DIR/SP/G
                 (UTC)          (F)     (DEG/KT/KT) (MB)    (MI)
DIMNDSHOAL 41025 0000            56                 1021.5R
WVE H/P(F/S)=  5/ 9

CAPE LOOKOUT     2300            56     350/  4/  5 1020.7R
ONSLOW BAY 41036 0000            58 60  270/  8/ 10 1022.2R
WVE H/P(F/S)=  4/ 8 WND WVE H/P(F/S)=  2/ 4 SWL H/P/D(F/S/D)=  5/190/ 8

5 WRITEBCH 41038 NOT AVBL
MASONBORO  41110 0000               54                N/A
WVE H/P(F/S)=  3/ 8 WND WVE H/P(F/S)=  3/ 8

WILM HARBR 41108 0000               57                N/A
WVE H/P(F/S)=  3/ 6 WND WVE H/P(F/S)=  3/ 6

27WRITEBCH 41037 2300            54 60  260/  8/ 10 1022.2R
FRYING PAN 41013 0000            58 70  310/ 10/ 14 1022.4R
WVE H/P(F/S)=  4/ 8 WND WVE H/P(F/S)=  2/ 4 SWL H/P/D(F/S/D)=  3/170/ 8

SUNST NRSH 41024 2300            54     250/  6/  6   N/A
CAPRS NRSH 41029 2300            54     230/  8/  8   N/A
EDISTO     41004 0000            58 71  310/  6/ 10 1022.4R
WVE H/P(F/S)=  3/ 5 WND WVE H/P(F/S)=  2/ 3 SWL H/P/D(F/S/D)=  3/ 5



..........OFFSHORE BUOYS BEYOND 100 NM OFFSHORE...........
.....IN A TRIANGLE---HAT TO BERMUDA TO BAHAMAS TO HAT.....


STATION/POSITION TIME  SKY/WX   TEMP    WIND        PRES    VSBY
                                AIR SEA DIR/SP/G
                 (UTC)          (F)     (DEG/KT/KT) (MB)    (MI)
150E HAT   41001 NOT AVBL
W BERMUDA  41048 NOT AVBL
ATLANTIC S 41049 NOT AVBL
E BAHAMAS  41046 NOT AVBL
NE BAHAMAS 41047 NOT AVBL
120E CANVRL41010 0000            70 76   20/  4/  6 1022.1R
WVE H/P(F/S)=  5/ 7 WND WVE H/P(F/S)=  2/ 3 SWL H/P/D(F/S/D)=  5/320/ 7


END


USA.gov is the U.S. government's official web portal to all federal, state and local government web resources and services.